カタログに戻る

COSMOS 2491 DEB

LostPO
NORAD 57553·DEBRIS·🇷🇺 Russia

打ち上げ Dec 25, 2013 から Plesetsk Cosmodrome

Loading…

次のパス (今後24時間)

TLE

古いSource: Space-Track

元期: Aug 11, 2026, 09:43 UTC

1 57553U 13076AQ  26223.40509507  .00000076  00000-0  43042-3 0  9996
2 57553  82.4826 113.2784 0044255 192.2470 167.7542 12.50322985148673

AllMySatでCOSMOS 2491 DEBをリアルタイム追跡

Download on the App Store